User: anonymous   Login
Location: Unspecified
(0.0000°N, 0.0000°E)
Time: 22:13:01
(UTC+00:00)
Language:

ONEWEB-0111 - Orbit

View from above orbital plane
View from above orbital plane
View from above satellite
View from above satellite

Ground track
Ground track

The orbit is defined by the following mean orbital elements,

1 47261U          26145.32888491 +.00000000 +00000-0 +76848-3 0 00000
2 47261  87.8960 355.2070 0001844  83.1928 276.9410 13.12444174    00
Epoch (UTC): 25 May 2026 07:53:35
Eccentricity: 0.0001844
inclination: 87.8960°
perigee height: 1212 km
apogee height: 1215 km
right ascension of ascending node: 355.2070°
argument of perigee: 83.1928°
revolutions per day: 13.12444174
mean anomaly at epoch: 276.9410°

The dashed part of the orbit path shows where the satellite is in the earth's shadow,  

DLR